Regional Weather Roundup
Issued by NWS

Home | Current Version | Previous Version | Text Only | Print | Product List | Glossary Off
Versions: 1 2 3 4 5 6 7 8 9 10 11 12 13 14 15 16 17 18 19 20 21 22 23 24 25 26 27 28 29 30 31 32 33 34 35 36 37 38 39 40 41 42 43 44 45 46 47 48 49 50

834
ASUS43 KOAX 061310
RWRNE

WEATHER ROUNDUP FOR NEBRASKA
NATIONAL WEATHER SERVICE OMAHA NE
700 AM CST SAT FEB 06 2016

NOTES: SATELLITE DATA IS BEING USED TO AUGMENT CLOUD COVER ABOVE
       12000 FEET.
       "FAIR" INDICATES FEW OR NO CLOUDS BELOW 12,000 FEET WITH NO
       SIGNIFICANT WEATHER AND/OR OBSTRUCTIONS TO VISIBILITY.

  * THESE STATIONS DO NOT REPORT WEATHER SUCH AS RAIN...SNOW OR FOG.

NEZ001>004-019>022-054>056-061400-
NEBRASKA PANHANDLE

CITY           SKY/WX    TMP DP  RH WIND       PRES   REMARKS
SCOTTSBLUFF    CLOUDY    23  15  71 NW10      30.16F WCI  12
ALLIANCE       CLOUDY    18  12  77 W14       30.12F WCI   4
CHADRON        CLOUDY    22  15  75 SW8       30.13S WCI  12
KIMBALL        CLOUDY    26  15  65 W16       30.17S WCI  13
SIDNEY         CLOUDY    21  12  68 W17       30.17F WCI   7
$$

NEZ057>060-069>072-079>082-061400-
SOUTHWEST NEBRASKA

CITY           SKY/WX    TMP DP  RH WIND       PRES   REMARKS
NORTH PLATTE   CLOUDY    12   6  77 NW5       30.20F WCI   4
IMPERIAL       CLOUDY    16   7  67 W13       30.21F WCI   2
LEXINGTON      CLOUDY   N/A N/A N/A NW6       30.23S
MCCOOK         CLOUDY    13   8  81 W10       30.25S WCI   0
OGALLALA       CLOUDY    13   7  75 W10       30.19F WCI   0
$$

NEZ005>010-023>029-035>040-094-061400-
NORTH CENTRAL NEBRASKA

CITY           SKY/WX    TMP DP  RH WIND       PRES   REMARKS
VALENTINE      CLOUDY    21  15  78 SW10      30.09F WCI  10
AINSWORTH      CLEAR     25  17  73 SW10      30.09F WCI  15
BROKEN BOW     CLOUDY    17  12  80 CALM      30.17F
O`NEILL        CLEAR     22  17  83 SW8       30.14S WCI  12
ORD            FOG       12   9  87 CALM      30.19R VSB 1/2
THEDFORD       CLOUDY    22  17  79 W3        30.14F
$$

NEZ041-046>049-061>064-073>077-083>087-061400-
SOUTH CENTRAL NEBRASKA

CITY           SKY/WX    TMP DP  RH WIND       PRES   REMARKS
GRAND ISLAND   CLOUDY    19  15  84 W9        30.23R WCI   8
AURORA         CLOUDY    16  15  95 SW8       30.23R WCI   5
HASTINGS       CLOUDY    17  13  84 SW8       30.23R WCI   7
HEBRON         CLOUDY    14  13  95 CALM      30.27S
HOLDREGE       CLOUDY    18  13  81 W10       30.23S WCI   7
KEARNEY *      CLOUDY    18 -26  13 W13       30.23R WCI   4
YORK           CLOUDY    14  12  92 SW7       30.24R WCI   4
$$

NEZ011>018-030>034-042>045-061400-
NORTHEAST NEBRASKA

CITY           SKY/WX    TMP DP  RH WIND       PRES   REMARKS
NORFOLK        CLOUDY    15  10  80 CALM      30.18S
ALBION         CLOUDY    22  19  87 CALM      30.19S
BLAIR          FOG       22  21  93 S5        30.22F VSB<1/4 WCI  16
COLUMBUS *     CLOUDY    10   1  67 W3        30.22S
FREMONT        FOG       14  13  94 CALM      30.23F VSB 1/4
TEKAMAH        FOG       14  12  92 S9        30.23F VSB 1/4 WCI   2
WAYNE          CLOUDY    14  12  91 S3        30.19S
$$

NEZ050>053-065>068-078-088>093-061400-
SOUTHEAST NEBRASKA

CITY           SKY/WX    TMP DP  RH WIND       PRES   REMARKS
LINCOLN        FOG       19  17  92 SW3       30.27S VSB 3/4
OMAHA EPPLEY   PTCLDY    25  23  92 CALM      30.25S
BEATRICE       CLEAR     23  22  98 CALM      30.27R FOG
FALLS CITY     MOCLDY    27  25  92 W3        30.27S FOG
NEBRASKA CITY  CLEAR     28  28 100 W5        30.25F WCI  23
PLATTSMOUTH    FOG       23  22  96 W3        30.24S VSB 1/2
$$

NEZ044-045-051>053-067-061400-
OMAHA AREA

CITY           SKY/WX    TMP DP  RH WIND       PRES   REMARKS
OMAHA EPPLEY   PTCLDY    25  23  92 CALM      30.25S
BLAIR          FOG       22  21  93 S5        30.22F VSB<1/4 WCI  16
FREMONT        FOG       14  13  94 CALM      30.23F VSB 1/4
MILLARD        FOG       19  17  92 CALM      30.25R VSB 1/2
OFFUTT AFB       N/A     16  16 100 CALM      30.25S FOG
PLATTSMOUTH    FOG       23  22  96 W3        30.24S VSB 1/2
WAHOO          FOG       12  10  90 S5        30.24S VSB 1/4 WCI   4
$$




USA.gov is the U.S. government's official web portal to all federal, state and local government web resources and services.